Printer-friendly version

IAU Minor Planet Center

Minor Planet Center

MPEC 2005-S49 : 2005 QS176

The following Minor Planet Electronic Circular may be linked-to from your own Web pages, but must not otherwise be redistributed electronically.


Read MPEC 2005-S48 Read MPEC 2005-S50


M.P.E.C. 2005-S49                                Issued 2005 Sept. 26, 18:26 UT

     The Minor Planet Electronic Circulars contain information on unusual
         minor planets and routine data on comets.  They are published
   on behalf of Commission 20 of the International Astronomical Union by the
          Minor Planet Center, Smithsonian Astrophysical Observatory,
                          Cambridge, MA 02138, U.S.A.

                  Supported in part by the Brinson Foundation
             Prepared using the Tamkin Foundation Computer Network

                              MPC@CFA.HARVARD.EDU
          URL http://cfa-www.harvard.edu/iau/mpc.html  ISSN 1523-6714

                                  2005 QS176

Observations:
     K05QH6S* C2005 08 29.37513 23 57 54.01 +10 39 51.2          20.9 R ES049644
     K05QH6S  C2005 08 29.39475 23 57 57.48 +10 39 40.7          20.3 R ES049644
     K05QH6S  C2005 08 29.42591 23 58 03.06 +10 39 23.3          21.0 R ES049644
     K05QH6S  C2005 09 24.41702 01 39 55.14 +00 22 52.9          19.0 R ES049644
     K05QH6S  C2005 09 24.43890 01 40 00.44 +00 22 06.4          19.4 R ES049644
     K05QH6S  C2005 09 24.44362 01 40 01.27 +00 21 55.9          19.3 V ES049703
     K05QH6S  C2005 09 24.45201 01 40 03.36 +00 21 38.3          19.3 V ES049703
     K05QH6S  C2005 09 24.46050 01 40 05.41 +00 21 21.2          19.1 V ES049703
     K05QH6S  C2005 09 24.46081 01 40 05.78 +00 21 20.0          18.7 R ES049644
     K05QH6S  C2005 09 24.46893 01 40 07.57 +00 21 02.6          19.4 V ES049703
     K05QH6S  C2005 09 25.28301 01 43 40.74 -00 07 49.1          18.7 R ES049651
     K05QH6S  C2005 09 25.28446 01 43 41.14 -00 07 52.0          18.7 R ES049651
     K05QH6S  C2005 09 25.28468 01 43 39.44 -00 07 59.6          19.3 R ES049932
     K05QH6S  C2005 09 25.28589 01 43 41.44 -00 07 54.9          18.8 R ES049651
     K05QH6S  C2005 09 25.29505 01 43 43.68 -00 08 14.8          19.1 V ES049703
     K05QH6S  C2005 09 25.30004 01 43 43.23 -00 08 33.0          18.7 R ES049932
     K05QH6S  C2005 09 25.30095 01 43 45.08 -00 08 28.4          19.2 V ES049703
     K05QH6S  C2005 09 25.30306 01 43 43.99 -00 08 39.5          19.1 R ES049932
     K05QH6S  C2005 09 25.30685 01 43 46.52 -00 08 40.7          18.9 V ES049703
     K05QH6S  C2005 09 25.31270 01 43 47.92 -00 08 53.2          19.0 V ES049703
     K05QH6S 5C2005 09 25.33530 01 43 53.74 -00 09 43.3          19.0 R ES049673
     K05QH6S 5C2005 09 25.34005 01 43 54.82 -00 09 52.5                 ES049673
     K05QH6S 5C2005 09 25.34525 01 43 56.06 -00 10 03.7                 ES049673
     K05QH6S 5C2005 09 25.35093 01 43 57.44 -00 10 16.1                 ES049673
     K05QH6S  C2005 09 25.88259 01 46 14.82 -00 29 25.2          19.0 V ES049A50
     K05QH6S  C2005 09 25.88337 01 46 15.06 -00 29 25.5          18.9 V ES049A50
     K05QH6S  C2005 09 25.88413 01 46 15.22 -00 29 27.1          19.1 V ES049A50
     K05QH6S  C2005 09 25.88490 01 46 15.37 -00 29 29.6          18.9 V ES049A50
     K05QH6S  C2005 09 25.96297 01 46 35.49 -00 32 18.5                 ES049J95
     K05QH6S  C2005 09 25.96636401 46 36.35 -00 32 25.8                 ES049J95
     K05QH6S  C2005 09 25.96990 01 46 37.21 -00 32 32.6          19.2 R ES049J95
     K05QH6S 5C2005 09 26.42118 01 48 31.22 -00 48 31.8          19.8 R ES049673
     K05QH6S 5C2005 09 26.42778 01 48 32.75 -00 48 45.6                 ES049673
     K05QH6S 5C2005 09 26.43438 01 48 34.29 -00 48 59.0                 ES049673
     K05QH6S 5C2005 09 26.43900 01 48 35.36 -00 49 08.8                 ES049673
     K05QH6S  C2005 09 26.58647 01 49 13.99 -00 53 26.0          18.7 R ES049474
     K05QH6S  C2005 09 26.58898 01 49 14.64 -00 53 29.6          18.6 R ES049474
     K05QH6S  C2005 09 26.59150 01 49 15.28 -00 53 35.4          19.0 R ES049474

Observer details:
474 Mount John Observatory, Lake Tekapo.  Observers A. C. Gilmore,
    P. M. Kilmartin.  Measurer P. M. Kilmartin.  0.6-m f/6.4 reflector + CCD.
644 Palomar Mountain/NEAT.  Observers R. Bambery, M. Hicks, K. Lawrence,
    E. Helin, R. Thicksten.  1.2-m Schmidt + CCD.
651 Grasslands Observatory, Tucson.  Observer J. E. McGaha.  0.62-m f/5.1
    Newtonian reflector + CCD.
673 Table Mountain Observatory, Wrightwood.  Observer J. Young.  0.6-m f/16
    Cassegrain + CCD.
703 Catalina Sky Survey.  Observers E. C. Beshore, R. A. Kowalski, B. Kowalski.
    Measurers E. C. Beshore, E. J. Christensen, G. J. Garradd, A. D. Grauer,
    R. E. Hill, R. A. Kowalski, S. M. Larson, R. H. McNaught.  0.68-m Schmidt
    + CCD.
932 John J. McCarthy Obs., New Milford.  Observer M. Robson.  0.4-m f/6.5
    Schmidt-Cassegrain + CCD.
A50 Andrushivka Astronomical Observatory.  Observer O. Gerashchenko.  0.6-m
    f/2.0 reflector + CCD.
J95 Great Shefford.  Observer P. Birtwhistle.  0.40-m f/6.0 Schmidt-Cassegrain
    + CCD.

Orbital elements:
2005 QS176
Epoch 2005 Aug. 18.0 TT = JDT 2453600.5                 MPC
M 345.16677              (2000.0)            P               Q
n   0.29774789     Peri.  201.47456     +0.95829666     -0.28549084
a   2.2211110      Node   175.06085     +0.27899471     +0.92496891
e   0.4768592      Incl.    8.51428     +0.06188265     +0.25085355
P   3.31           H   21.6           G   0.15           U   7
Residuals in seconds of arc
050829 644  0.0   0.2-    050925 651  0.4-  0.8+    050925 A50  0.1-  0.8+
050829 644  0.3-  0.1+    050925 703  0.0   1.0+    050925 A50  0.7-  0.0
050829 644  0.3+  0.2+    050925 932  0.5+  0.4-    050925 J95  0.1-  0.7-
050924 644  0.1-  0.4+    050925 703  0.5-  0.0     050925 J95  0.3+  0.7-
050924 644  0.1-  0.3+    050925 932  0.9+  0.4-    050925 J95  0.1+  0.1+
050924 703  0.6-  0.8-    050925 703  0.3-  0.3+    050926 673  0.9+  0.3-
050924 703  0.1+  0.6-    050925 703  0.4-  0.3+    050926 673  0.1+  0.1+
050924 703  0.2-  0.3+    050925 673  0.6+  0.1-    050926 673  0.5-  0.8+
050924 644  0.2+  0.4+    050925 673  0.4-  0.8+    050926 673  1.0-  1.0+
050924 703  1.3+  0.4-    050925 673  0.6-  0.7+    050926 474  0.4-  0.9-
050925 651  0.4-  0.4+    050925 673  0.5-  0.5+    050926 474  0.2+  0.9+
050925 651  0.3+  0.6+    050925 A50  0.4-  0.6-    050926 474  0.7+  0.6+
050925 932  0.5-  0.2+    050925 A50  0.3+  0.8+

Ephemeris:
2005 QS176               a,e,i = 2.22, 0.48, 9                   q = 1.1620
Date    TT    R. A. (2000) Decl.     Delta      r     Elong.  Phase     V
2005 09 27    01 50.99   -01 08.8    0.178    1.167   155.7    20.7    19.2
2005 10 07    02 30.77   -06 55.1    0.180    1.162   152.1    23.7    19.3
2005 10 17    03 02.40   -11 22.7    0.195    1.167   148.7    26.3    19.6
2005 10 27    03 24.32   -13 56.3    0.218    1.183   147.0    27.3    19.9
2005 11 06    03 37.76   -14 39.0    0.250    1.208   146.7    26.8    20.2
2005 11 16    03 45.55   -13 48.5    0.289    1.241   147.1    25.6    20.5
2005 11 26    03 50.44   -11 49.2    0.336    1.282   147.0    24.8    20.9
2005 12 06    03 54.59   -09 03.7    0.394    1.329   145.7    24.7    21.3
2005 12 16    03 59.62   -05 53.3    0.463    1.381   142.8    25.5    21.8

Kyle E. Smalley              (C) Copyright 2005 MPC           M.P.E.C. 2005-S49

Read MPEC 2005-S48 Read MPEC 2005-S50


Our Web policy. Index to the CBAT/MPC/ICQ pages.


Valid HTML 4.01!